Elmira, NY

5:40 PM EST on December 05, 2019 (GMT -0500)
Elmira-Corning Regional

Weather History for KELM - October, 2019

Change the Weather History Date:

Thursday, October 3, 2019

  Actual Average Record
Temperature  
Mean Temperature 56 °F -  
Max Temperature 61 °F 65 °F 87 °F (1950)
Min Temperature 50 °F 42 °F 27 °F (2003)
Degree Days  
Heating Degree Days 10    
Growing Degree Days 6 (Base 50)    
Moisture  
Dew Point 52 °F    
Average Humidity 93    
Maximum Humidity 100    
Minimum Humidity 80    
Precipitation  
Precipitation 0.39 in - - ()
Sea Level Pressure  
Sea Level Pressure 30.01 in    
Wind  
Wind Speed 5 mph (ENE)    
Max Wind Speed 8 mph    
Max Gust Speed -    
Visibility 6 miles    
Events Rain    
Averages and records for this station are not official NWS values.
T = Trace of Precipitation, MM = Missing Value Source: NWS Daily Summary

Daily Weather History Graph

Daily Weather History Graph

Search for Another Location

Airport or City:

Astronomy

Oct. 03, 2019 Rise Set
Actual Time 7:06 AM EDT 6:46 PM EDT
Civil Twilight 6:38 AM EDT 7:13 PM EDT
Nautical Twilight 6:06 AM EDT 7:46 PM EDT
Astronomical Twilight 5:33 AM EDT 8:19 PM EDT
Moon 12:40 PM EDT (10/3) 10:18 PM EDT (10/3)
Length of Visible Light 12h 35m
Length of Day
11h 39m
Waxing Crescent, 29% of the Moon is Illuminated
Oct 3
Waxing Crescent
Oct 5
First Quarter
Oct 13
Full
Oct 21
Last Quarter
Oct 27
New

Hourly Weather History & Observations

Time (EDT) Temp. Dew Point Humidity Pressure Visibility Wind Dir Wind Speed Gust Speed Precip Events Conditions
12:53 AM 51.1 °F 46.0 °F 83% 30.06 in 10.0 mi NNE 8.1 mph - N/A   Overcast
1:02 AM 51.1 °F 45.0 °F 80% 30.06 in 10.0 mi NE 5.8 mph - N/A   Overcast
1:53 AM 51.1 °F 46.0 °F 83% 30.07 in 10.0 mi NNE 5.8 mph - N/A   Overcast
2:53 AM 51.1 °F 46.0 °F 83% 30.06 in 10.0 mi NNE 6.9 mph - N/A   Overcast
3:00 AM 51.1 °F 46.0 °F 83% 30.06 in 10.0 mi North 6.9 mph - N/A   Overcast
3:53 AM 51.1 °F 46.9 °F 86% 30.06 in 10.0 mi NNE 5.8 mph - N/A   Overcast
4:53 AM 51.1 °F 46.9 °F 86% 30.06 in 10.0 mi NE 4.6 mph - 0.00 in   Overcast
5:53 AM 51.1 °F 46.9 °F 86% 30.08 in 6.0 mi NE 5.8 mph - 0.01 in Rain Light Rain
6:10 AM 50.0 °F 48.9 °F 96% 30.08 in 10.0 mi East 3.5 mph - 0.01 in Rain Light Rain
6:48 AM 50.0 °F 48.2 °F 94% 30.09 in 5.0 mi NE 4.6 mph - 0.03 in Rain Light Rain
6:53 AM 50.0 °F 48.9 °F 96% 30.09 in 6.0 mi NNE 3.5 mph - 0.03 in Rain Light Rain
7:53 AM 50.0 °F 48.9 °F 96% 30.09 in 2.5 mi NE 4.6 mph - 0.03 in Rain Light Rain
8:00 AM 50.0 °F 48.9 °F 96% 30.08 in 3.0 mi Calm Calm - 0.00 in Rain Light Rain
8:16 AM 50.0 °F 48.9 °F 96% 30.08 in 2.0 mi East 3.5 mph - 0.02 in Rain Rain
8:40 AM 51.1 °F 48.9 °F 92% 30.08 in 3.0 mi NE 4.6 mph - 0.04 in Rain Light Rain
8:50 AM 51.8 °F 50.0 °F 94% 30.07 in 2.5 mi NNE 4.6 mph - 0.05 in Rain Light Rain
8:53 AM 51.1 °F 50.0 °F 96% 30.08 in 2.5 mi NNE 4.6 mph - 0.05 in Rain Rain
9:23 AM 51.1 °F 50.0 °F 96% 30.06 in 3.0 mi NE 4.6 mph - 0.05 in Rain Rain
9:53 AM 52.0 °F 50.0 °F 93% 30.04 in 6.0 mi ENE 6.9 mph - 0.09 in Rain Light Rain
10:14 AM 52.0 °F 51.1 °F 97% 30.05 in 10.0 mi Variable 3.5 mph - 0.00 in Rain Light Rain
10:32 AM 52.0 °F 51.1 °F 97% 30.04 in 2.0 mi NE 4.6 mph - 0.00 in Rain Light Rain
10:39 AM 52.0 °F 51.1 °F 97% 30.03 in 2.0 mi NNE 4.6 mph - 0.00 in Rain Light Rain
10:53 AM 53.1 °F 51.1 °F 93% 30.04 in 2.0 mi ENE 3.5 mph - 0.00 in Rain Light Rain
11:00 AM 53.1 °F 51.1 °F 93% 30.03 in 5.0 mi Calm Calm - 0.00 in Rain Light Rain
11:33 AM 53.1 °F 51.1 °F 93% 30.03 in 2.5 mi ENE 4.6 mph - 0.01 in Rain Light Rain
11:49 AM 53.6 °F 51.8 °F 94% 30.02 in 3.0 mi ENE 4.6 mph - 0.02 in Rain Light Rain
11:53 AM 54.0 °F 52.0 °F 93% 30.02 in 4.0 mi East 3.5 mph - 0.02 in Rain Light Rain
12:51 PM 55.4 °F 53.6 °F 94% 29.99 in 2.5 mi NE 3.5 mph - 0.02 in Rain Light Rain
12:53 PM 55.0 °F 53.1 °F 93% 30.00 in 3.0 mi ENE 4.6 mph - 0.02 in Rain Light Rain
1:39 PM 55.0 °F 53.1 °F 93% 29.97 in 2.0 mi Calm Calm - 0.06 in Rain Rain
1:53 PM 55.9 °F 54.0 °F 93% 29.97 in 2.0 mi NE 3.5 mph - 0.07 in Rain Light Rain
2:27 PM 55.9 °F 54.0 °F 93% 29.95 in 1.0 mi NE 5.8 mph - 0.06 in Rain Rain
2:53 PM 57.0 °F 55.0 °F 93% 29.94 in 1.0 mi Calm Calm - 0.07 in   Overcast
3:00 PM 57.0 °F 55.0 °F 93% 29.93 in 10.0 mi SE 5.8 mph - N/A   Overcast
3:33 PM 57.9 °F 55.9 °F 93% 29.92 in 10.0 mi East 4.6 mph - N/A   Overcast
3:53 PM 57.9 °F 55.9 °F 93% 29.92 in 10.0 mi ESE 4.6 mph - 0.00 in   Overcast
4:53 PM 59.0 °F 57.0 °F 93% 29.91 in 10.0 mi East 5.8 mph - N/A   Overcast
5:53 PM 59.0 °F 57.0 °F 93% 29.91 in 10.0 mi SE 6.9 mph - N/A   Overcast
6:53 PM 60.1 °F 57.9 °F 93% 29.92 in 10.0 mi Calm Calm - N/A   Overcast
7:53 PM 60.1 °F 59.0 °F 96% 29.94 in 10.0 mi Calm Calm - N/A   Overcast
8:53 PM 60.1 °F 59.0 °F 96% 29.94 in 10.0 mi Calm Calm - N/A   Overcast
9:53 PM 61.0 °F 59.0 °F 93% 29.94 in 10.0 mi East 3.5 mph - N/A   Overcast
10:53 PM 60.1 °F 59.0 °F 96% 29.95 in 10.0 mi Calm Calm - N/A   Overcast
11:16 PM 60.1 °F 59.0 °F 96% 29.94 in 10.0 mi Calm Calm - N/A   Mostly Cloudy
11:53 PM 59.0 °F 59.0 °F 100% 29.95 in 10.0 mi SSW 3.5 mph - N/A   Overcast